Hourly Weather Bolshoy Shuduguzh

Today, 2 August, Monday

Time Temperature Precipitation Wind Pressure Humidity
00:00 +20°C° 0 mm 2 mps 750 mmHg 65%
01:00 +20°C° 0 mm 2 mps 749 mmHg 64%
02:00 +20°C° 0 mm 2 mps 749 mmHg 64%
03:00 +19°C° 0 mm 2 mps 749 mmHg 64%
04:00 +19°C° 0.1 mm 2 mps 750 mmHg 68%
05:00 +19°C° 0.1 mm 2 mps 750 mmHg 73%
06:00 +19°C° 0.1 mm 2 mps 750 mmHg 77%
07:00 +21°C° 0.1 mm 2 mps 750 mmHg 72%
08:00 +24°C° 0.1 mm 2 mps 750 mmHg 67%
09:00 +25°C° 0.1 mm 2 mps 750 mmHg 63%
10:00 +27°C° 0 mm 2 mps 750 mmHg 56%
11:00 +28°C° 0 mm 2 mps 750 mmHg 50%
12:00 +30°C° 0 mm 3 mps 750 mmHg 43%
13:00 +31°C° 0 mm 3 mps 749 mmHg 41%
14:00 +33°C° 0 mm 3 mps 749 mmHg 39%
15:00 +33°C° 0 mm 3 mps 749 mmHg 37%
16:00 +32°C° 0 mm 2 mps 749 mmHg 42%
17:00 +31°C° 0 mm 2 mps 748 mmHg 46%
18:00 +30°C° 0 mm 1 mps 748 mmHg 51%
19:00 +28°C° 0 mm 1 mps 748 mmHg 57%
20:00 +26°C° 0 mm 1 mps 748 mmHg 63%
21:00 +24°C° 0 mm 2 mps 748 mmHg 69%
22:00 +23°C° 0 mm 2 mps 748 mmHg 71%
23:00 +23°C° 0 mm 2 mps 748 mmHg 73%

Tomorrow, 3 August, Tuesday

Time Temperature Precipitation Wind Pressure Humidity
00:00 +21°C° 0 mm 2 mps 748 mmHg 76%
01:00 +21°C° 0 mm 2 mps 748 mmHg 77%
02:00 +20°C° 0 mm 2 mps 747 mmHg 79%
03:00 +20°C° 0 mm 2 mps 747 mmHg 80%
04:00 +21°C° 0 mm 3 mps 747 mmHg 78%
05:00 +21°C° 0 mm 3 mps 747 mmHg 75%
06:00 +22°C° 0 mm 3 mps 746 mmHg 73%
07:00 +25°C° 0 mm 3 mps 746 mmHg 64%
08:00 +28°C° 0 mm 4 mps 746 mmHg 56%
09:00 +30°C° 0 mm 4 mps 746 mmHg 47%
10:00 +32°C° 0 mm 4 mps 746 mmHg 44%
11:00 +33°C° 0 mm 4 mps 746 mmHg 41%
12:00 +34°C° 0 mm 4 mps 746 mmHg 37%
13:00 +33°C° 0 mm 4 mps 746 mmHg 41%
14:00 +32°C° 0 mm 4 mps 746 mmHg 44%
15:00 +32°C° 0 mm 4 mps 746 mmHg 47%
16:00 +28°C° 0.6 mm 3 mps 746 mmHg 62%
17:00 +25°C° 0.6 mm 2 mps 747 mmHg 76%
18:00 +23°C° 0.6 mm 1 mps 747 mmHg 91%
19:00 +22°C° 0 mm 1 mps 747 mmHg 93%
20:00 +21°C° 0 mm 1 mps 747 mmHg 95%
21:00 +20°C° 0 mm 1 mps 748 mmHg 96%
22:00 +20°C° 0 mm 1 mps 748 mmHg 96%
23:00 +18°C° 0 mm 0 mps 747 mmHg 96%

Day after tomorrow, 4 August, Wednesday

Time Temperature Precipitation Wind Pressure Humidity
00:00 +17°C° 0 mm 0 mps 747 mmHg 96%
01:00 +17°C° 0.5 mm 0 mps 747 mmHg 97%
02:00 +19°C° 0.5 mm 1 mps 747 mmHg 97%
03:00 +19°C° 0.5 mm 1 mps 748 mmHg 97%
04:00 +19°C° 1.2 mm 1 mps 748 mmHg 98%
05:00 +19°C° 1.2 mm 1 mps 748 mmHg 98%
06:00 +19°C° 1.2 mm 1 mps 748 mmHg 98%
07:00 +19°C° 0.4 mm 2 mps 748 mmHg 95%
08:00 +20°C° 0.4 mm 2 mps 748 mmHg 91%
09:00 +21°C° 0.4 mm 2 mps 748 mmHg 87%
10:00 +24°C° 0.3 mm 3 mps 748 mmHg 75%
11:00 +25°C° 0.3 mm 3 mps 749 mmHg 62%
12:00 +27°C° 0.3 mm 3 mps 749 mmHg 50%
13:00 +27°C° 0 mm 3 mps 749 mmHg 48%
14:00 +27°C° 0 mm 3 mps 749 mmHg 45%
15:00 +27°C° 0 mm 3 mps 749 mmHg 43%
16:00 +26°C° 0 mm 3 mps 750 mmHg 46%
17:00 +26°C° 0 mm 3 mps 750 mmHg 50%
18:00 +25°C° 0 mm 3 mps 750 mmHg 53%
19:00 +23°C° 0 mm 2 mps 750 mmHg 59%
20:00 +20°C° 0 mm 2 mps 751 mmHg 64%
21:00 +18°C° 0 mm 2 mps 751 mmHg 70%
22:00 +17°C° 0 mm 2 mps 751 mmHg 72%
23:00 +16°C° 0 mm 2 mps 752 mmHg 74%

5 August, Thursday

Time Temperature Precipitation Wind Pressure Humidity
00:00 +16°C° 0 mm 2 mps 752 mmHg 77%
01:00 +15°C° 0 mm 2 mps 752 mmHg 77%
02:00 +15°C° 0 mm 2 mps 752 mmHg 78%
03:00 +14°C° 0 mm 2 mps 753 mmHg 79%
04:00 +15°C° 0 mm 2 mps 753 mmHg 76%
05:00 +15°C° 0 mm 2 mps 753 mmHg 73%
06:00 +16°C° 0 mm 2 mps 754 mmHg 71%
07:00 +18°C° 0 mm 2 mps 754 mmHg 61%
08:00 +20°C° 0 mm 2 mps 754 mmHg 52%
09:00 +23°C° 0 mm 2 mps 754 mmHg 43%
10:00 +24°C° 0 mm 2 mps 754 mmHg 39%
11:00 +25°C° 0 mm 3 mps 754 mmHg 35%
12:00 +26°C° 0 mm 3 mps 754 mmHg 31%
13:00 +26°C° 0 mm 3 mps 754 mmHg 30%
14:00 +26°C° 0 mm 3 mps 754 mmHg 30%
15:00 +26°C° 0 mm 3 mps 754 mmHg 29%
16:00 +25°C° 0 mm 2 mps 754 mmHg 35%
17:00 +24°C° 0 mm 2 mps 754 mmHg 41%
18:00 +24°C° 0 mm 2 mps 754 mmHg 46%
19:00 +21°C° 0 mm 2 mps 754 mmHg 49%
20:00 +20°C° 0 mm 1 mps 755 mmHg 52%
21:00 +18°C° 0 mm 1 mps 755 mmHg 55%
22:00 +18°C° 0 mm 1 mps 755 mmHg 55%
23:00 +18°C° 0 mm 1 mps 755 mmHg 54%

6 August, Friday

Time Temperature Precipitation Wind Pressure Humidity
00:00 +18°C° 0 mm 1 mps 755 mmHg 54%
01:00 +18°C° 0 mm 1 mps 755 mmHg 55%
02:00 +18°C° 0 mm 1 mps 755 mmHg 57%
03:00 +16°C° 0 mm 1 mps 755 mmHg 58%
04:00 +16°C° 0 mm 1 mps 756 mmHg 59%
05:00 +16°C° 0 mm 2 mps 756 mmHg 59%
06:00 +16°C° 0 mm 2 mps 756 mmHg 59%
07:00 +17°C° 0 mm 2 mps 756 mmHg 58%
08:00 +18°C° 0 mm 2 mps 757 mmHg 57%
09:00 +18°C° 0 mm 2 mps 757 mmHg 56%
10:00 +20°C° 0 mm 1 mps 757 mmHg 53%
11:00 +21°C° 0 mm 1 mps 757 mmHg 51%
12:00 +22°C° 0 mm 1 mps 757 mmHg 49%
13:00 +22°C° 0 mm 1 mps 757 mmHg 48%
14:00 +23°C° 0 mm 2 mps 757 mmHg 47%
15:00 +23°C° 0 mm 2 mps 757 mmHg 46%
16:00 +23°C° 0 mm 2 mps 757 mmHg 50%
17:00 +22°C° 0 mm 1 mps 757 mmHg 54%
18:00 +22°C° 0 mm 1 mps 757 mmHg 58%
19:00 +20°C° 0 mm 1 mps 757 mmHg 60%
20:00 +19°C° 0 mm 1 mps 757 mmHg 63%
21:00 +18°C° 0 mm 1 mps 757 mmHg 66%
22:00 +16°C° 0 mm 2 mps 758 mmHg 66%
23:00 +15°C° 0 mm 2 mps 758 mmHg 66%

7 August, Saturday

Time Temperature Precipitation Wind Pressure Humidity
00:00 +14°C° 0 mm 2 mps 758 mmHg 66%
01:00 +14°C° 0 mm 2 mps 758 mmHg 67%
02:00 +13°C° 0 mm 2 mps 758 mmHg 68%
03:00 +13°C° 0 mm 2 mps 759 mmHg 69%
04:00 +13°C° 0 mm 2 mps 759 mmHg 67%
05:00 +14°C° 0 mm 2 mps 759 mmHg 65%
06:00 +14°C° 0 mm 2 mps 760 mmHg 64%
07:00 +16°C° 0 mm 3 mps 760 mmHg 55%
08:00 +19°C° 0 mm 3 mps 760 mmHg 46%
09:00 +21°C° 0 mm 3 mps 760 mmHg 37%
10:00 +22°C° 0 mm 3 mps 760 mmHg 35%
11:00 +24°C° 0 mm 2 mps 760 mmHg 32%
12:00 +25°C° 0 mm 2 mps 760 mmHg 30%
13:00 +25°C° 0 mm 2 mps 760 mmHg 30%
14:00 +25°C° 0 mm 2 mps 759 mmHg 29%
15:00 +26°C° 0 mm 2 mps 759 mmHg 29%
16:00 +25°C° 0 mm 2 mps 759 mmHg 34%
17:00 +24°C° 0 mm 2 mps 759 mmHg 39%
18:00 +23°C° 0 mm 2 mps 759 mmHg 45%
19:00 +20°C° 0 mm 2 mps 759 mmHg 50%
20:00 +18°C° 0 mm 2 mps 760 mmHg 55%
21:00 +15°C° 0 mm 2 mps 760 mmHg 60%
22:00 +15°C° 0 mm 2 mps 760 mmHg 63%
23:00 +14°C° 0 mm 2 mps 760 mmHg 66%
Show more

We Need Your Consent

Meteoprog and our Service Providers may store and access personal data such as cookies, device identifiers or other similar technologies on your device and process such data to personalise content and ads, as well as provide social media features and to analyse the traffic.

  • Store and/or access information on your device

    Cookies, device identifiers or other information can be stored or accessed on your device for the purposes indicated above.

  • Personalised ads and content, ad and content measurement, audience insights, and products development

    Ads and content can be personalised based on a profile. More data can be added to better personalise ads and content. Ad and content performance can be measured. Insights about the audience who saw the ads and content can be derived. Such data can be used to develop or improve user’s experience, systems and software.

By clicking ‘I Agree’ you will allow the use of indicated cookies, device identifiers, web beacons or other similar technologies. Your settings can be changed in the browser on your device.

For certain purposes, legitimate interests may be relied on, rather than consent. You can read more about this in our Privacy and Cookie Policy.